Location: Unspecified
(47.9110°N, 14.3980°E)
Time: 07:45:07
(UTC+00:00)

Cosmos 1378 Rocket - Pass Details

Date: 06 August 2020
Orbit: 600 x 628 km, 82.5° (Epoch: 26 September)

Event Time Altitude Azimuth Distance (km) Brightness Sun altitude
Rises 22:51:05 0° 349° (N) 2,930 8.4 -25.6°
Reaches altitude 10° 22:53:20 10° 348° (NNW) 2,018 7.2 -25.6°
Enters shadow 22:57:23 70° 320° (NW) 672 3.7 -25.7°
